Regional Weather Roundup
Issued by NWS

Home | Current Version | Previous Version | Text Only | Print | Product List | Glossary Off
Versions: 1 2 3 4 5 6 7 8 9 10 11 12 13 14 15 16 17 18 19 20 21 22 23 24 25 26 27 28 29 30 31 32 33 34 35 36 37 38 39 40 41 42 43 44 45 46 47 48 49 50

000
ASUS43 KFSD 261610
RWRSD

WEATHER ROUNDUP FOR SOUTH DAKOTA
NATIONAL WEATHER SERVICE SIOUX FALLS SD
1000 AM CST FRI DEC 26 2014

NOTE: "FAIR" INDICATES FEW OR NO CLOUDS BELOW 12,000 FEET WITH NO
SIGNIFICANT WEATHER AND/OR OBSTRUCTIONS TO VISIBILITY.


SDZ001>005-009-010-012>017-261700-
NORTHWEST AND NORTH CENTRAL SOUTH DAKOTA

CITY           SKY/WX    TMP DP  RH WIND       PRES   REMARKS
BUFFALO          N/A     20  14  77 N6        30.04R WCI  12
FAITH            N/A     19  13  77 NW12      30.13R WCI   7
MOBRIDGE       LGT SNOW  21  16  81 N14       30.14R WCI   8
$$

SDZ012>016-024>037-041>051-057-063-072>074-261700-
SOUTHWEST AND SOUTH CENTRAL SOUTH DAKOTA

CITY           SKY/WX    TMP DP  RH WIND       PRES   REMARKS
RAPID CTY ARPT CLOUDY    19  15  84 N9        30.08S WCI   8
PIERRE         CLOUDY    23  17  78 N13       30.14R WCI  11
CUSTER         CLOUDY    14  11  87 W5        29.92S WCI   6
ELLSWORTH AFB  MIX PCPN  19  15  86 N8        30.08S WCI   9
PHILIP         CLOUDY    23  16  74 N12       30.14R WCI  12
PINE RIDGE     CLOUDY    19  14  81 N10       30.08R WCI   7
SPEARFISH      FLURRIES  16  14  93 NE5       30.06R WCI   9
WINNER         FRZ RAIN  24  21  88 N21       30.11R FOG     WCI   9
$$

SDZ004>011-016>023-039-040-261700-
NORTHEAST SOUTH DAKOTA

CITY           SKY/WX    TMP DP  RH WIND       PRES   REMARKS
ABERDEEN       CLOUDY    24  20  84 N16       30.15R WCI  11
WATERTOWN      PTSUNNY   21  17  84 N16       30.07R WCI   7
SISSETON         N/A     24  20  84 N18       30.12R WCI  10
$$

SDZ017-020-022-023-036>040-048>070-261700-
SOUTHEAST SOUTH DAKOTA

CITY           SKY/WX    TMP DP  RH WIND       PRES   REMARKS
SIOUX FALLS    CLOUDY    28  23  81 N10       30.07R WCI  19
HURON          PTSUNNY   23  18  81 N14       30.13R WCI  11
CHAMBERLAIN    MIX PCPN  24  22  93 N8        30.12R WCI  14
MITCHELL       CLOUDY    26  24  92 N15       30.12R WCI  14
YANKTON        CLOUDY    28  23  80 N16       30.08S WCI  17
$$

ABBREVIATIONS USED IN REMARKS
   TC - TEMPERATURE IN CELSIUS
  WCI - WIND CHILL INDEX
   HX - HEAT INDEX
  VSB - VISIBILITY



USA.gov is the U.S. government's official web portal to all federal, state and local government web resources and services.